BAW108 OMDB-EGLL

Flight info

Callsign BAW108
Flight time N/A
Altitude 34000
Route SENPA N571 ALPOB L768 ULADA Q143 MEDGO N697 HIL A788 HLF/N0493F360 L604 WEJ L677 CVO L617 NOZ L551 ANTAR UN133 KPC DCT FSK/N0487F380 DCT DISOR DCT LONTA UL608 DOLEV DCT BOSNA DCT MARIL DCT OKSIG DCT KUSIB DCT GORPA DCT DOL DCT NIPEL DCT MODSA DCT BABEG DCT LIRSU DCT ARCKY DCT BUB L608 LOGAN
Aircraft B77W/H-SDE1E2E3FGHIJ2J3J4J5M1RWXY/LB1D1

Departure

Time N/A
Airport Dubai International Airport (OMDB)

Arrival

Time 2026-05-04 07:33
Airport London Heathrow Airport (EGLL)
Time Latitude Longitude Altitude Speed Heading
2026-05-04 07:12 51.63213 2.12985 33766 ft 458 kts 285°
2026-05-04 07:12 51.64298 2.08177 32888 ft 457 kts 284°
2026-05-04 07:12 51.65383 2.03365 31814 ft 459 kts 284°
2026-05-04 07:13 51.66476 1.98509 30709 ft 463 kts 283°
2026-05-04 07:13 51.67575 1.93615 29726 ft 464 kts 283°
2026-05-04 07:13 51.68670 1.88738 28983 ft 457 kts 283°
2026-05-04 07:14 51.72838 1.70071 26299 ft 434 kts 284°
2026-05-04 07:14 51.73853 1.65493 25566 ft 431 kts 285°
2026-05-04 07:15 51.74646 1.60907 24921 ft 419 kts 274°
2026-05-04 07:15 51.74611 1.56288 24301 ft 404 kts 260°
2026-05-04 07:15 51.74356 1.53325 23929 ft 402 kts 261°
2026-05-04 07:15 51.73903 1.47321 23052 ft 404 kts 262°
2026-05-04 07:16 51.73599 1.42814 22406 ft 404 kts 262°
2026-05-04 07:16 51.73305 1.38323 21791 ft 400 kts 262°
2026-05-04 07:16 51.73019 1.33937 21206 ft 396 kts 262°
2026-05-04 07:16 51.72730 1.29525 20614 ft 395 kts 262°
2026-05-04 07:17 51.72437 1.25114 20031 ft 395 kts 262°
2026-05-04 07:17 51.72142 1.20709 19453 ft 396 kts 262°
2026-05-04 07:17 51.71844 1.16294 18863 ft 395 kts 262°
2026-05-04 07:17 51.71546 1.11893 18292 ft 393 kts 262°
2026-05-04 07:18 51.71349 1.08999 17852 ft 391 kts 262°
2026-05-04 07:18 51.71052 1.04648 17219 ft 388 kts 262°
2026-05-04 07:18 51.70756 1.00342 16639 ft 385 kts 262°
2026-05-04 07:18 51.70461 0.96081 16079 ft 381 kts 262°
2026-05-04 07:19 51.70168 0.91857 15588 ft 377 kts 262°
2026-05-04 07:19 51.69876 0.87666 15129 ft 375 kts 262°
2026-05-04 07:19 51.69585 0.83495 14675 ft 374 kts 262°
2026-05-04 07:19 51.69293 0.79322 14221 ft 374 kts 262°
2026-05-04 07:20 51.69000 0.75151 13753 ft 374 kts 262°
2026-05-04 07:20 51.68705 0.70998 13240 ft 373 kts 262°
2026-05-04 07:20 51.68410 0.66850 12761 ft 371 kts 262°
2026-05-04 07:20 51.68114 0.62729 12295 ft 367 kts 262°
2026-05-04 07:22 51.66131 0.35555 9483 ft 328 kts 262°
2026-05-04 07:22 51.65865 0.31969 9316 ft 317 kts 262°
2026-05-04 07:23 51.65614 0.28590 8942 ft 299 kts 262°
2026-05-04 07:23 51.65373 0.25359 8576 ft 283 kts 262°
2026-05-04 07:23 51.65142 0.22291 8216 ft 269 kts 262°
2026-05-04 07:23 51.64919 0.19340 7887 ft 264 kts 262°
2026-05-04 07:24 51.64681 0.16415 7542 ft 260 kts 257°
2026-05-04 07:24 51.63951 0.13799 7211 ft 255 kts 232°
2026-05-04 07:24 51.62779 0.11664 6917 ft 255 kts 226°
2026-05-04 07:24 51.61528 0.09628 6592 ft 256 kts 225°
2026-05-04 07:25 51.60265 0.07604 6287 ft 257 kts 225°
2026-05-04 07:26 51.51565 -0.06185 3978 ft 226 kts 225°
2026-05-04 07:27 51.50495 -0.07872 3975 ft 207 kts 225°
2026-05-04 07:27 51.49501 -0.09435 4022 ft 195 kts 225°
2026-05-04 07:27 51.48541 -0.10970 3986 ft 193 kts 231°
2026-05-04 07:27 51.48002 -0.12907 3813 ft 194 kts 263°
2026-05-04 07:28 51.47905 -0.15073 3589 ft 196 kts 268°
2026-05-04 07:28 51.47857 -0.17256 3317 ft 195 kts 270°
2026-05-04 07:28 51.47841 -0.19411 3046 ft 192 kts 271°
2026-05-04 07:28 51.47834 -0.21521 2786 ft 190 kts 271°
2026-05-04 07:29 51.47828 -0.23593 2560 ft 182 kts 271°
2026-05-04 07:29 51.47822 -0.25582 2302 ft 173 kts 270°
2026-05-04 07:29 51.47816 -0.27493 2081 ft 170 kts 270°
2026-05-04 07:29 51.47810 -0.29362 1880 ft 166 kts 270°
2026-05-04 07:30 51.47804 -0.31209 1642 ft 166 kts 270°
2026-05-04 07:30 51.47798 -0.33067 1415 ft 168 kts 271°
2026-05-04 07:30 51.47792 -0.34903 1182 ft 158 kts 272°
2026-05-04 07:30 51.47787 -0.36603 966 ft 147 kts 271°
2026-05-04 07:31 51.47782 -0.38248 763 ft 153 kts 272°
2026-05-04 07:31 51.47777 -0.39933 548 ft 149 kts 271°
2026-05-04 07:33 51.47689 -0.47385 94 ft 13 kts 191°
2026-05-04 07:33 51.47601 -0.47379 93 ft 13 kts 167°
2026-05-04 07:33 51.47512 -0.47357 92 ft 13 kts 178°
2026-05-04 07:33 51.47423 -0.47355 92 ft 13 kts 180°
2026-05-04 07:34 51.47342 -0.47354 91 ft 8 kts 180°
2026-05-04 07:34 51.47291 -0.47354 91 ft 5 kts 180°
2026-05-04 07:34 51.47255 -0.47354 93 ft 6 kts 180°
2026-05-04 07:34 51.47229 -0.47394 95 ft 6 kts 252°
2026-05-04 07:35 51.47224 -0.47464 94 ft 7 kts 269°
2026-05-04 07:35 51.47224 -0.47502 94 ft 1 kts 269°
2026-05-04 07:35 51.47224 -0.47508 94 ft 0 kts 269°